User: anonymous   Login
Location: Sungai Apap
(2.6167°N, 113.3833°E)
Time: 20:48:18
(UTC+00:00)
Language:

Spelda - Orbit

View from above orbital plane
View from above orbital plane
View from above satellite
View from above satellite

Ground track
Ground track

The orbit data is extracted from the following two-line orbital elements,

1 21818U 91084D   24197.16838190  .00005462  00000-0  34027-2 0  9996
2 21818   3.6127 191.2906 6017061 192.9225 139.3382  3.94758178336351
Epoch (UTC): 15 July 2024 04:02:28
Eccentricity: 0.6017061
inclination: 3.6127°
perigee height: 357 km
apogee height: 20709 km
right ascension of ascending node: 191.2906°
argument of perigee: 192.9225°
revolutions per day: 3.94758178
mean anomaly at epoch: 139.3382°
orbit number at epoch: 33635

The dashed part of the orbit path shows where the satellite is in the earth's shadow,  

DLR